Weather in Aksaray

Turkey     38°22′16″N   34°01′26″E
temp.,
°C
wind,
m/s
gust,
m/s
humid.,
%
clouds,
%
prec.,
mm/h
press.,
hPa
HPBL,
m
10 may, mon
mon1000:00+8ene611560 0.0 1021456
03:00+7ne59590 0.0 1021237
06:00+5ne611640 0.0 1022316
09:00+10ne89380 0.0 1020739
12:00+14nne87230 0.0 10181125
15:00+17ne77200 0.0 10161328
18:00+15ne77220 0.0 10151057
21:00+10ne612360 0.0 1017324
11 may, tue
tue1100:00+8ene47450 0.0 1017137
03:00+7ne34480 0.0 101648
06:00+6ne33520 0.0 101737
09:00+13nne45320 0.0 1015560
12:00+18n43220 0.0 10131197
15:00+20nw32190 0.0 10111476
18:00+20nw43220 0.0 10101153
21:00+13nne11390 0.0 101111
12 may, wed
wed1200:00+13e22370 0.0 101111
03:00+11ese22380 0.0 101010
06:00+11se11415 0.0 101010
09:00+18nnw11245 0.0 1010509
12:00+24sw45170 0.0 10081914
15:00+26sw46130 0.0 10062867
18:00+26w46155 0.0 10053192
21:00+20s55234 0.0 100855
13 may, thu
thu1300:00+18s56330 0.0 100978
03:00+16s453798 0.0 100959
06:00+15s2241100 0.0 101017
09:00+21ssw342813 0.0 1010703
12:00+25sw55200 0.0 10091854
15:00+28sw55150 0.0 10082936
18:00+27sw45140 0.0 10073053
21:00+21s33205 0.0 101024
14 may, fri
fri1400:00+18s33335 0.0 101119
03:00+17s224014 0.0 101113
06:00+15s11455 0.0 101213
09:00+22w11295 0.0 1011599
12:00+27sw67175 0.0 10112049
15:00+29w56120 0.0 10102803
18:00+28nw56140 0.0 10091476
21:00+19n11350 0.0 101211